| time (UTC) | temp F | wind direction | speed MPH | gust MPH | rain 1hr in | rain 24hr in | rain mn in | humidity % | barometer mb |
| 20260906230512 | 83 | 152 | 8.0 | 14.0 | 0.00 | 0.00 | 0.00 | 62 | 1015.0 |
| 20260906230037 | 83 | 175 | 6.0 | 13.0 | 0.00 | 0.00 | 0.00 | 63 | 1010.5 |
| 20260906230026 | 83 | 148 | 6.0 | 13.0 | 0.00 | 0.00 | 0.00 | 62 | 1015.0 |
| 20260906225513 | 83 | 125 | 7.0 | 13.0 | 0.00 | 0.00 | 0.00 | 61 | 1015.1 |
| 20260906225013 | 83 | 158 | 7.0 | 14.0 | 0.00 | 0.00 | 0.00 | 60 | 1015.0 |
| 20260906224539 | 83 | 150 | 9.0 | 14.0 | 0.00 | 0.00 | 0.00 | 60 | 1015.1 |
| 20260906224537 | 83 | 145 | 8.0 | 14.0 | 0.00 | 0.00 | 0.00 | 60 | 1010.5 |
| 20260906224017 | 83 | 150 | 7.0 | 14.0 | 0.00 | 0.00 | 0.00 | 60 | 1015.1 |
| 20260906223516 | 84 | 143 | 10.0 | 13.0 | 0.00 | 0.00 | 0.00 | 58 | 1015.1 |
| 20260906223037 | 84 | 205 | 7.0 | 13.0 | 0.00 | 0.00 | 0.00 | 57 | 1015.0 |
| 20260906222507 | 84 | 172 | 3.0 | 7.0 | 0.00 | 0.00 | 0.00 | 56 | 1014.9 |
| 20260906222008 | 84 | 127 | 2.0 | 5.0 | 0.00 | 0.00 | 0.00 | 58 | 1014.9 |
| 20260906221535 | 84 | 131 | 2.0 | 4.0 | 0.00 | 0.00 | 0.00 | 57 | 1010.5 |
| 20260906221531 | 84 | 158 | 2.0 | 4.0 | 0.00 | 0.00 | 0.00 | 56 | 1015.1 |
| 20260906221008 | 84 | 172 | 1.0 | 4.0 | 0.00 | 0.00 | 0.00 | 59 | 1015.2 |
| 20260906220511 | 83 | 200 | 2.0 | 7.0 | 0.00 | 0.00 | 0.00 | 57 | 1015.3 |
| 20260906220035 | 83 | 186 | 2.0 | 7.0 | 0.00 | 0.00 | 0.00 | 59 | 1011.1 |
| 20260906220023 | 83 | 180 | 3.0 | 7.0 | 0.00 | 0.00 | 0.00 | 58 | 1015.6 |
| 20260906215513 | 83 | 238 | 3.0 | 7.0 | 0.00 | 0.00 | 0.00 | 57 | 1015.7 |
| 20260906215013 | 83 | 216 | 4.0 | 7.0 | 0.00 | 0.00 | 0.00 | 57 | 1015.8 |
| 20260906214531 | 83 | 231 | 3.0 | 8.0 | 0.00 | 0.00 | 0.00 | 58 | 1011.5 |
| 20260906214529 | 83 | 214 | 4.0 | 8.0 | 0.00 | 0.00 | 0.00 | 58 | 1016.0 |
| 20260906214014 | 83 | 143 | 5.0 | 8.0 | 0.00 | 0.00 | 0.00 | 58 | 1015.9 |
| 20260906213515 | 83 | 135 | 4.0 | 6.0 | 0.00 | 0.00 | 0.00 | 56 | 1015.9 |
| 20260906213031 | 83 | 124 | 0.0 | 4.0 | 0.00 | 0.00 | 0.00 | 59 | 1015.7 |
| 20260906212516 | 83 | 122 | 1.0 | 4.0 | 0.00 | 0.00 | 0.00 | 57 | 1015.8 |
| 20260906212017 | 82 | 151 | 1.0 | 5.0 | 0.00 | 0.00 | 0.00 | 59 | 1015.9 |
| 20260906211530 | 82 | 203 | 3.0 | 5.0 | 0.00 | 0.00 | 0.00 | 59 | 1015.9 |
| 20260906211527 | 82 | 209 | 2.0 | 5.0 | 0.00 | 0.00 | 0.00 | 59 | 1011.4 |
| 20260906211009 | 81 | 130 | 2.0 | 4.0 | 0.00 | 0.00 | 0.00 | 61 | 1015.8 |
| 20260906210508 | 82 | 237 | 1.0 | 6.0 | 0.00 | 0.00 | 0.00 | 62 | 1015.8 |
| 20260906210025 | 81 | 212 | 3.0 | 6.0 | 0.00 | 0.00 | 0.00 | 63 | 1011.0 |
| 20260906210017 | 81 | 136 | 3.0 | 6.0 | 0.00 | 0.00 | 0.00 | 62 | 1015.7 |
| 20260906205510 | 81 | 112 | 2.0 | 4.0 | 0.00 | 0.00 | 0.00 | 64 | 1015.7 |
| 20260906205012 | 81 | 144 | 1.0 | 4.0 | 0.00 | 0.00 | 0.00 | 64 | 1015.6 |
| 20260906204624 | 81 | 168 | 0.0 | 4.0 | 0.00 | 0.00 | 0.00 | 65 | 1011.0 |
| 20260906204545 | 81 | 148 | 1.0 | 4.0 | 0.00 | 0.00 | 0.00 | 64 | 1015.6 |
| 20260906204014 | 80 | 226 | 1.0 | 4.0 | 0.00 | 0.00 | 0.00 | 66 | 1015.6 |
| 20260906203512 | 80 | 203 | 2.0 | 5.0 | 0.00 | 0.00 | 0.00 | 64 | 1015.6 |
| 20260906203028 | 80 | 194 | 2.0 | 5.0 | 0.00 | 0.00 | 0.00 | 65 | 1015.6 |
| 20260906203022 | 80 | 193 | 2.0 | 5.0 | 0.00 | 0.00 | 0.00 | 65 | 1011.1 |
| 20260906202513 | 80 | 212 | 3.0 | 4.0 | 0.00 | 0.00 | 0.00 | 66 | 1015.7 |
| 20260906202018 | 80 | 255 | 3.0 | 5.0 | 0.00 | 0.00 | 0.00 | 64 | 1015.7 |
| 20260906201531 | 80 | 220 | 2.0 | 5.0 | 0.00 | 0.00 | 0.00 | 67 | 1015.9 |
| 20260906201520 | 80 | 230 | 2.0 | 5.0 | 0.00 | 0.00 | 0.00 | 67 | 1011.3 |
| 20260906201017 | 79 | 227 | 1.0 | 5.0 | 0.00 | 0.00 | 0.00 | 70 | 1016.1 |
| 20260906200517 | 79 | 231 | 3.0 | 8.0 | 0.00 | 0.00 | 0.00 | 69 | 1016.1 |
| 20260906200032 | 79 | 217 | 4.0 | 8.0 | 0.00 | 0.00 | 0.00 | 71 | 1016.0 |
| 20260906200020 | 79 | 238 | 3.0 | 8.0 | 0.00 | 0.00 | 0.00 | 70 | 1011.4 |
| 20260906195505 | 78 | 228 | 4.0 | 8.0 | 0.00 | 0.00 | 0.00 | 68 | 1016.1 |
| 20260906195010 | 78 | 226 | 4.0 | 9.0 | 0.00 | 0.00 | 0.00 | 69 | 1016.1 |
| 20260906194520 | 78 | 275 | 4.0 | 10.0 | 0.00 | 0.00 | 0.00 | 69 | 1016.1 |
| 20260906194009 | 78 | 214 | 6.0 | 10.0 | 0.00 | 0.00 | 0.00 | 68 | 1016.0 |
| 20260906193514 | 78 | 242 | 3.0 | 7.0 | 0.00 | 0.00 | 0.00 | 70 | 1015.9 |
| 20260906193026 | 78 | 253 | 3.0 | 9.0 | 0.00 | 0.00 | 0.00 | 70 | 1016.1 |
| 20260906193018 | 78 | 221 | 3.0 | 9.0 | 0.00 | 0.00 | 0.00 | 71 | 1011.4 |
| 20260906192512 | 78 | 288 | 6.0 | 9.0 | 0.00 | 0.00 | 0.00 | 69 | 1016.2 |
| 20260906192014 | 78 | 240 | 6.0 | 9.0 | 0.00 | 0.00 | 0.00 | 70 | 1016.2 |
| 20260906191531 | 78 | 243 | 6.0 | 9.0 | 0.00 | 0.00 | 0.00 | 69 | 1016.2 |
| 20260906191517 | 78 | 248 | 5.0 | 9.0 | 0.00 | 0.00 | 0.00 | 69 | 1011.7 |
| 20260906191015 | 78 | 228 | 5.0 | 9.0 | 0.00 | 0.00 | 0.00 | 69 | 1016.2 |
| 20260906190518 | 78 | 240 | 4.0 | 9.0 | 0.00 | 0.00 | 0.00 | 71 | 1016.2 |
| 20260906190034 | 78 | 239 | 3.0 | 8.0 | 0.00 | 0.00 | 0.00 | 71 | 1016.2 |
| 20260906190015 | 77 | 276 | 2.0 | 8.0 | 0.00 | 0.00 | 0.00 | 72 | 1011.5 |
| 20260906185516 | 78 | 278 | 2.0 | 8.0 | 0.00 | 0.00 | 0.00 | 72 | 1016.2 |
| 20260906185015 | 78 | 238 | 5.0 | 9.0 | 0.00 | 0.00 | 0.00 | 69 | 1016.3 |
| 20260906184531 | 78 | 259 | 1.0 | 9.0 | 0.00 | 0.00 | 0.00 | 71 | 1016.2 |
| 20260906184515 | 78 | 34 | 1.0 | 9.0 | 0.00 | 0.00 | 0.00 | 71 | 1011.6 |
| 20260906184007 | 78 | 276 | 2.0 | 9.0 | 0.00 | 0.00 | 0.00 | 72 | 1016.3 |
| 20260906183512 | 78 | 300 | 4.0 | 9.0 | 0.00 | 0.00 | 0.00 | 72 | 1016.4 |
| 20260906183026 | 78 | 274 | 3.0 | 7.0 | 0.00 | 0.00 | 0.00 | 76 | 1016.7 |
| 20260906183017 | 78 | 248 | 3.0 | 7.0 | 0.00 | 0.00 | 0.00 | 76 | 1011.9 |
| 20260906182514 | 78 | 308 | 2.0 | 9.0 | 0.00 | 0.00 | 0.00 | 77 | 1016.8 |
| 20260906182018 | 78 | 236 | 5.0 | 9.0 | 0.00 | 0.00 | 0.00 | 75 | 1016.9 |
| 20260906181539 | 78 | 267 | 5.0 | 9.0 | 0.00 | 0.00 | 0.00 | 76 | 1016.8 |
| 20260906181512 | 78 | 235 | 4.0 | 9.0 | 0.00 | 0.00 | 0.00 | 77 | 1012.1 |
| 20260906181016 | 78 | 248 | 4.0 | 10.0 | 0.00 | 0.00 | 0.00 | 76 | 1016.6 |
| 20260906180517 | 78 | 266 | 5.0 | 11.0 | 0.00 | 0.00 | 0.00 | 76 | 1016.6 |
| 20260906180047 | 79 | 247 | 7.0 | 12.0 | 0.00 | 0.00 | 0.00 | 75 | 1016.3 |
| 20260906180011 | 79 | 238 | 7.0 | 12.0 | 0.00 | 0.00 | 0.00 | 76 | 1011.7 |
| 20260906175517 | 79 | 252 | 7.0 | 12.0 | 0.00 | 0.00 | 0.00 | 77 | 1016.2 |
| 20260906175016 | 79 | 257 | 4.0 | 11.0 | 0.00 | 0.00 | 0.00 | 79 | 1016.0 |
| 20260906174534 | 79 | 266 | 5.0 | 12.0 | 0.00 | 0.00 | 0.00 | 80 | 1015.9 |
| 20260906174511 | 79 | 259 | 4.0 | 12.0 | 0.00 | 0.00 | 0.00 | 81 | 1011.2 |
| 20260906174021 | 79 | 249 | 6.0 | 12.0 | 0.00 | 0.00 | 0.00 | 80 | 1016.0 |
| 20260906173520 | 79 | 236 | 5.0 | 12.0 | 0.00 | 0.00 | 0.00 | 81 | 1016.2 |
| 20260906173034 | 79 | 215 | 6.0 | 12.0 | 0.00 | 0.00 | 0.00 | 81 | 1016.2 |
| 20260906173010 | 79 | 259 | 6.0 | 12.0 | 0.00 | 0.00 | 0.00 | 82 | 1011.5 |
| 20260906172513 | 79 | 245 | 4.0 | 11.0 | 0.00 | 0.00 | 0.00 | 82 | 1016.3 |
| 20260906172009 | 79 | 241 | 4.0 | 11.0 | 0.00 | 0.00 | 0.00 | 82 | 1016.4 |
| 20260906171525 | 79 | 235 | 6.0 | 13.0 | 0.00 | 0.00 | 0.00 | 83 | 1016.5 |
| 20260906171510 | 79 | 205 | 6.0 | 13.0 | 0.00 | 0.00 | 0.00 | 83 | 1011.6 |
| 20260906171011 | 79 | 223 | 7.0 | 13.0 | 0.00 | 0.00 | 0.00 | 82 | 1016.4 |
| 20260906170515 | 79 | 248 | 5.0 | 11.0 | 0.00 | 0.00 | 0.00 | 84 | 1016.4 |
| 20260906170028 | 79 | 219 | 5.0 | 12.0 | 0.00 | 0.00 | 0.00 | 85 | 1016.3 |
| 20260906170014 | 79 | 214 | 5.0 | 11.0 | 0.00 | 0.00 | 0.00 | 85 | 1011.6 |
| 20260906165520 | 79 | 205 | 6.0 | 12.0 | 0.00 | 0.00 | 0.00 | 85 | 1016.4 |
| 20260906165017 | 79 | 214 | 5.0 | 10.0 | 0.00 | 0.00 | 0.00 | 85 | 1016.4 |
| 20260906164532 | 79 | 192 | 7.0 | 11.0 | 0.00 | 0.00 | 0.00 | 85 | 1016.4 |
| 20260906164512 | 79 | 203 | 6.0 | 11.0 | 0.00 | 0.00 | 0.00 | 85 | 1011.7 |
| 20260906164016 | 79 | 204 | 7.0 | 15.0 | 0.00 | 0.00 | 0.00 | 85 | 1016.5 |
| 20260906163518 | 79 | 197 | 9.0 | 15.0 | 0.00 | 0.00 | 0.00 | 84 | 1016.5 |
| 20260906163033 | 79 | 205 | 5.0 | 14.0 | 0.00 | 0.00 | 0.00 | 84 | 1016.5 |
| 20260906163007 | 79 | 207 | 5.0 | 14.0 | 0.00 | 0.00 | 0.00 | 85 | 1011.8 |
| 20260906162519 | 79 | 167 | 8.0 | 16.0 | 0.00 | 0.00 | 0.00 | 84 | 1016.6 |
| 20260906162018 | 80 | 205 | 8.0 | 16.0 | 0.00 | 0.00 | 0.00 | 84 | 1016.6 |
| 20260906161532 | 80 | 186 | 8.0 | 13.0 | 0.00 | 0.00 | 0.00 | 83 | 1016.6 |
| 20260906161506 | 80 | 215 | 7.0 | 13.0 | 0.00 | 0.00 | 0.00 | 84 | 1011.8 |
| 20260906161009 | 80 | 200 | 8.0 | 13.0 | 0.00 | 0.00 | 0.00 | 83 | 1016.5 |
| 20260906160511 | 80 | 211 | 7.0 | 14.0 | 0.00 | 0.00 | 0.00 | 83 | 1016.4 |
| 20260906160033 | 80 | 159 | 7.0 | 14.0 | 0.00 | 0.00 | 0.00 | 83 | 1016.4 |
| 20260906160006 | 80 | 164 | 6.0 | 14.0 | 0.00 | 0.00 | 0.00 | 84 | 1011.6 |
| 20260906155514 | 80 | 182 | 7.0 | 14.0 | 0.00 | 0.00 | 0.00 | 83 | 1016.4 |
| 20260906155015 | 80 | 215 | 6.0 | 13.0 | 0.00 | 0.00 | 0.00 | 83 | 1016.4 |
| 20260906154530 | 80 | 205 | 6.0 | 11.0 | 0.00 | 0.00 | 0.00 | 83 | 1016.3 |
| 20260906154508 | 80 | 190 | 6.0 | 11.0 | 0.00 | 0.00 | 0.00 | 83 | 1011.4 |
| 20260906154017 | 81 | 184 | 5.0 | 8.0 | 0.00 | 0.00 | 0.00 | 83 | 1016.1 |
| 20260906153515 | 80 | 191 | 3.0 | 7.0 | 0.00 | 0.00 | 0.00 | 83 | 1016.0 |
| 20260906153031 | 80 | 193 | 4.0 | 7.0 | 0.00 | 0.00 | 0.00 | 83 | 1015.9 |
| 20260906153001 | 80 | 193 | 4.0 | 7.0 | 0.00 | 0.00 | 0.00 | 84 | 1011.0 |
| 20260906152518 | 80 | 178 | 5.0 | 8.0 | 0.00 | 0.00 | 0.00 | 84 | 1015.6 |
| 20260906152019 | 80 | 134 | 5.0 | 9.0 | 0.00 | 0.00 | 0.00 | 84 | 1015.7 |
| 20260906151611 | 80 | 140 | 4.0 | 9.0 | 0.00 | 0.00 | 0.00 | 84 | 1010.9 |
| 20260906151534 | 80 | 153 | 5.0 | 9.0 | 0.00 | 0.00 | 0.00 | 84 | 1015.7 |
| 20260906151018 | 80 | 160 | 3.0 | 9.0 | 0.00 | 0.00 | 0.00 | 85 | 1015.8 |
| 20260906150519 | 80 | 155 | 4.0 | 8.0 | 0.00 | 0.00 | 0.00 | 85 | 1015.7 |
| 20260906150103 | 80 | 181 | 5.0 | 8.0 | 0.00 | 0.00 | 0.00 | 85 | 1011.0 |
| 20260906150026 | 80 | 131 | 4.0 | 8.0 | 0.00 | 0.00 | 0.00 | 85 | 1015.7 |
| 20260906145511 | 79 | 160 | 5.0 | 8.0 | 0.00 | 0.00 | 0.00 | 85 | 1015.7 |
| 20260906145012 | 79 | 166 | 5.0 | 8.0 | 0.00 | 0.00 | 0.00 | 86 | 1015.8 |
| 20260906144556 | 79 | 156 | 3.0 | 8.0 | 0.00 | 0.00 | 0.00 | 87 | 1011.0 |
| 20260906144529 | 79 | 208 | 4.0 | 9.0 | 0.00 | 0.00 | 0.00 | 87 | 1015.7 |
| 20260906144013 | 78 | 173 | 6.0 | 11.0 | 0.00 | 0.00 | 0.00 | 87 | 1015.7 |
| 20260906143514 | 78 | 143 | 6.0 | 11.0 | 0.00 | 0.00 | 0.00 | 87 | 1015.7 |
| 20260906143115 | 78 | 174 | 6.0 | 11.0 | 0.00 | 0.00 | 0.00 | 87 | 1011.0 |
| 20260906143038 | 78 | 150 | 6.0 | 11.0 | 0.00 | 0.00 | 0.00 | 87 | 1015.7 |
| 20260906142514 | 78 | 204 | 7.0 | 11.0 | 0.00 | 0.00 | 0.00 | 87 | 1015.8 |
| 20260906142019 | 78 | 177 | 4.0 | 11.0 | 0.00 | 0.00 | 0.00 | 87 | 1015.7 |
| 20260906141549 | 78 | 125 | 5.0 | 11.0 | 0.00 | 0.00 | 0.00 | 88 | 1011.1 |
| 20260906141519 | 78 | 155 | 5.0 | 11.0 | 0.00 | 0.00 | 0.00 | 87 | 1015.8 |
| 20260906141008 | 77 | 117 | 6.0 | 10.0 | 0.00 | 0.00 | 0.00 | 87 | 1015.8 |
| 20260906140514 | 77 | 132 | 2.0 | 10.0 | 0.00 | 0.00 | 0.00 | 88 | 1015.6 |
| 20260906140050 | 77 | 98 | 4.0 | 10.0 | 0.00 | 0.00 | 0.00 | 88 | 1011.0 |
| 20260906140023 | 77 | 136 | 4.0 | 10.0 | 0.00 | 0.00 | 0.00 | 88 | 1015.6 |
| 20260906135512 | 77 | 181 | 7.0 | 10.0 | 0.00 | 0.00 | 0.00 | 87 | 1015.7 |
| 20260906135009 | 77 | 128 | 4.0 | 7.0 | 0.00 | 0.00 | 0.00 | 88 | 1015.6 |
| 20260906134553 | 77 | 119 | 4.0 | 7.0 | 0.00 | 0.00 | 0.00 | 88 | 1011.1 |
| 20260906134524 | 76 | 112 | 4.0 | 7.0 | 0.00 | 0.00 | 0.00 | 88 | 1015.6 |
| 20260906134012 | 76 | 198 | 3.0 | 8.0 | 0.00 | 0.00 | 0.00 | 88 | 1015.6 |
| 20260906133514 | 76 | 119 | 3.0 | 8.0 | 0.00 | 0.00 | 0.00 | 88 | 1015.5 |
| 20260906133046 | 76 | 150 | 3.0 | 8.0 | 0.00 | 0.00 | 0.00 | 89 | 1011.0 |
| 20260906133038 | 76 | 89 | 3.0 | 8.0 | 0.00 | 0.00 | 0.00 | 89 | 1015.3 |
| 20260906132517 | 75 | 96 | 2.0 | 6.0 | 0.00 | 0.00 | 0.00 | 89 | 1015.3 |
| 20260906132013 | 75 | 85 | 2.0 | 5.0 | 0.00 | 0.00 | 0.00 | 89 | 1015.2 |
| 20260906131548 | 75 | 115 | 2.0 | 7.0 | 0.00 | 0.00 | 0.00 | 90 | 1010.9 |
| 20260906131531 | 75 | 103 | 3.0 | 7.0 | 0.00 | 0.00 | 0.00 | 90 | 1015.1 |
| 20260906131018 | 75 | 222 | 3.0 | 7.0 | 0.00 | 0.00 | 0.00 | 91 | 1015.0 |
| 20260906130521 | 74 | 130 | 3.0 | 6.0 | 0.00 | 0.00 | 0.00 | 91 | 1015.2 |
| 20260906130047 | 74 | 109 | 3.0 | 6.0 | 0.00 | 0.00 | 0.00 | 92 | 1010.8 |
| 20260906130018 | 74 | 121 | 3.0 | 8.0 | 0.00 | 0.00 | 0.00 | 91 | 1015.2 |
| 20260906125507 | 74 | 116 | 3.0 | 8.0 | 0.00 | 0.00 | 0.00 | 91 | 1015.1 |
| 20260906125011 | 73 | 129 | 3.0 | 8.0 | 0.00 | 0.00 | 0.00 | 91 | 1015.0 |
| 20260906124545 | 73 | 146 | 2.0 | 6.0 | 0.00 | 0.00 | 0.00 | 92 | 1010.4 |
| 20260906124525 | 73 | 121 | 3.0 | 6.0 | 0.00 | 0.00 | 0.00 | 92 | 1014.9 |
| 20260906124010 | 73 | 105 | 3.0 | 5.0 | 0.00 | 0.00 | 0.00 | 92 | 1014.7 |
| 20260906123516 | 73 | 183 | 2.0 | 5.0 | 0.00 | 0.00 | 0.00 | 92 | 1014.8 |
| 20260906123111 | 73 | 99 | 1.0 | 4.0 | 0.00 | 0.00 | 0.00 | 92 | 1010.4 |
| 20260906123027 | 73 | 60 | 2.0 | 5.0 | 0.00 | 0.00 | 0.00 | 92 | 1014.7 |
| 20260906122514 | 73 | 77 | 2.0 | 5.0 | 0.00 | 0.00 | 0.00 | 91 | 1014.7 |
| 20260906122014 | 73 | 84 | 2.0 | 7.0 | 0.00 | 0.00 | 0.00 | 91 | 1014.6 |
| 20260906121542 | 73 | 127 | 3.0 | 7.0 | 0.00 | 0.00 | 0.00 | 92 | 1010.2 |
| 20260906121531 | 73 | 108 | 4.0 | 7.0 | 0.00 | 0.00 | 0.00 | 91 | 1014.5 |
| 20260906121014 | 73 | 108 | 3.0 | 7.0 | 0.00 | 0.00 | 0.00 | 91 | 1014.6 |
| 20260906120521 | 73 | 126 | 3.0 | 9.0 | 0.00 | 0.00 | 0.00 | 91 | 1014.6 |
| 20260906120038 | 73 | 106 | 4.0 | 9.0 | 0.00 | 0.00 | 0.00 | 92 | 1010.2 |
| 20260906120036 | 73 | 117 | 5.0 | 9.0 | 0.00 | 0.00 | 0.00 | 91 | 1014.6 |
| 20260906115506 | 73 | 69 | 3.0 | 7.0 | 0.00 | 0.00 | 0.00 | 91 | 1014.5 |
| 20260906115007 | 73 | 115 | 4.0 | 7.0 | 0.00 | 0.00 | 0.00 | 91 | 1014.6 |
| 20260906114538 | 73 | 70 | 2.0 | 7.0 | 0.00 | 0.00 | 0.00 | 91 | 1010.1 |
| 20260906114534 | 73 | 126 | 2.0 | 7.0 | 0.00 | 0.00 | 0.00 | 91 | 1014.5 |
| 20260906114014 | 73 | 127 | 2.0 | 7.0 | 0.00 | 0.00 | 0.00 | 91 | 1014.4 |
| 20260906113512 | 73 | 129 | 3.0 | 5.0 | 0.00 | 0.00 | 0.00 | 91 | 1014.4 |
| 20260906113041 | 73 | 117 | 2.0 | 7.0 | 0.00 | 0.00 | 0.00 | 91 | 1010.1 |
| 20260906113027 | 73 | 117 | 2.0 | 7.0 | 0.00 | 0.00 | 0.00 | 90 | 1014.5 |
| 20260906112502 | 73 | 129 | 3.0 | 7.0 | 0.00 | 0.00 | 0.00 | 90 | 1014.6 |
| 20260906112003 | 73 | 117 | 3.0 | 5.0 | 0.00 | 0.00 | 0.00 | 90 | 1014.7 |
| 20260906111536 | 73 | 110 | 2.0 | 5.0 | 0.00 | 0.00 | 0.00 | 91 | 1010.2 |
| 20260906111508 | 73 | 103 | 3.0 | 5.0 | 0.00 | 0.00 | 0.00 | 90 | 1014.7 |
| 20260906111003 | 73 | 89 | 2.0 | 4.0 | 0.00 | 0.00 | 0.00 | 90 | 1014.7 |
| 20260906110505 | 73 | 91 | 2.0 | 5.0 | 0.00 | 0.00 | 0.00 | 90 | 1014.7 |
| 20260906110036 | 73 | 121 | 2.0 | 5.0 | 0.00 | 0.00 | 0.00 | 90 | 1010.3 |
| 20260906110014 | 73 | 106 | 2.0 | 5.0 | 0.00 | 0.00 | 0.00 | 90 | 1014.7 |
| 20260906105503 | 73 | 90 | 3.0 | 5.0 | 0.00 | 0.00 | 0.00 | 89 | 1014.7 |
| 20260906105007 | 73 | 115 | 2.0 | 5.0 | 0.00 | 0.00 | 0.00 | 89 | 1014.8 |
| 20260906104535 | 73 | 87 | 2.0 | 5.0 | 0.00 | 0.00 | 0.00 | 90 | 1010.4 |
| 20260906104521 | 73 | 110 | 3.0 | 5.0 | 0.00 | 0.00 | 0.00 | 89 | 1014.8 |
| 20260906104006 | 73 | 104 | 2.0 | 5.0 | 0.00 | 0.00 | 0.00 | 89 | 1014.8 |
| 20260906103508 | 73 | 120 | 2.0 | 6.0 | 0.00 | 0.00 | 0.00 | 89 | 1014.9 |
| 20260906103035 | 73 | 106 | 1.0 | 6.0 | 0.00 | 0.00 | 0.00 | 89 | 1010.4 |
| 20260906103023 | 73 | 87 | 2.0 | 7.0 | 0.00 | 0.00 | 0.00 | 89 | 1014.8 |
| 20260906102512 | 73 | 63 | 2.0 | 7.0 | 0.00 | 0.00 | 0.00 | 88 | 1014.8 |
| 20260906102015 | 73 | 99 | 2.0 | 5.0 | 0.00 | 0.00 | 0.00 | 88 | 1014.8 |
| 20260906101533 | 73 | 91 | 1.0 | 3.0 | 0.00 | 0.00 | 0.00 | 89 | 1010.4 |
| 20260906101531 | 73 | 85 | 1.0 | 3.0 | 0.00 | 0.00 | 0.00 | 88 | 1014.8 |
| 20260906101002 | 73 | 113 | 2.0 | 3.0 | 0.00 | 0.00 | 0.00 | 88 | 1014.9 |
| 20260906100506 | 73 | 114 | 1.0 | 4.0 | 0.00 | 0.00 | 0.00 | 88 | 1015.0 |
| 20260906100033 | 73 | 129 | 2.0 | 4.0 | 0.00 | 0.00 | 0.00 | 89 | 1010.4 |
| 20260906100012 | 73 | 155 | 2.0 | 4.0 | 0.00 | 0.00 | 0.00 | 88 | 1015.1 |
| 20260906095503 | 73 | 117 | 2.0 | 4.0 | 0.00 | 0.00 | 0.00 | 88 | 1015.1 |
| 20260906095003 | 73 | 105 | 0.0 | 4.0 | 0.00 | 0.00 | 0.00 | 88 | 1015.0 |
| 20260906094532 | 73 | 98 | 2.0 | 4.0 | 0.00 | 0.00 | 0.00 | 88 | 1010.5 |
| 20260906094514 | 73 | 101 | 2.0 | 4.0 | 0.00 | 0.00 | 0.00 | 88 | 1014.9 |
| 20260906094010 | 73 | 123 | 2.0 | 6.0 | 0.00 | 0.00 | 0.00 | 88 | 1015.0 |
| 20260906093508 | 73 | 154 | 3.0 | 6.0 | 0.00 | 0.00 | 0.00 | 88 | 1014.9 |
| 20260906093033 | 73 | 157 | 2.0 | 5.0 | 0.00 | 0.00 | 0.00 | 88 | 1010.5 |
| 20260906093023 | 73 | 130 | 2.0 | 5.0 | 0.00 | 0.00 | 0.00 | 88 | 1014.9 |
| 20260906092508 | 73 | 154 | 3.0 | 5.0 | 0.00 | 0.00 | 0.00 | 88 | 1015.0 |
| 20260906092015 | 73 | 136 | 1.0 | 4.0 | 0.00 | 0.00 | 0.00 | 88 | 1015.0 |
| 20260906091533 | 73 | 115 | 1.0 | 5.0 | 0.00 | 0.00 | 0.00 | 88 | 1010.6 |
| 20260906091526 | 73 | 131 | 2.0 | 5.0 | 0.00 | 0.00 | 0.00 | 88 | 1015.1 |
| 20260906091012 | 73 | 139 | 3.0 | 5.0 | 0.00 | 0.00 | 0.00 | 87 | 1015.0 |
| 20260906090513 | 73 | 160 | 2.0 | 5.0 | 0.00 | 0.00 | 0.00 | 87 | 1015.0 |
| 20260906090030 | 73 | 139 | 1.0 | 5.0 | 0.00 | 0.00 | 0.00 | 87 | 1014.9 |
| 20260906090027 | 73 | 153 | 1.0 | 5.0 | 0.00 | 0.00 | 0.00 | 87 | 1010.4 |
| 20260906085503 | 73 | 127 | 1.0 | 4.0 | 0.00 | 0.00 | 0.00 | 87 | 1014.8 |
| 20260906085003 | 73 | 146 | 2.0 | 4.0 | 0.00 | 0.00 | 0.00 | 86 | 1014.8 |
| 20260906084526 | 73 | 146 | 1.0 | 3.0 | 0.00 | 0.00 | 0.00 | 86 | 1010.3 |
| 20260906084509 | 73 | 108 | 1.0 | 4.0 | 0.00 | 0.00 | 0.00 | 86 | 1014.7 |
| 20260906084006 | 73 | 119 | 2.0 | 5.0 | 0.00 | 0.00 | 0.00 | 86 | 1014.7 |
| 20260906083508 | 73 | 136 | 2.0 | 5.0 | 0.00 | 0.00 | 0.00 | 85 | 1014.8 |
| 20260906083032 | 73 | 139 | 1.0 | 4.0 | 0.00 | 0.00 | 0.00 | 85 | 1010.5 |
| 20260906083015 | 73 | 140 | 2.0 | 4.0 | 0.00 | 0.00 | 0.00 | 85 | 1014.7 |
| 20260906082508 | 74 | 118 | 1.0 | 3.0 | 0.00 | 0.00 | 0.00 | 84 | 1014.7 |
| 20260906082008 | 74 | 123 | 1.0 | 3.0 | 0.00 | 0.00 | 0.00 | 84 | 1014.6 |
| 20260906081521 | 74 | 107 | 1.0 | 4.0 | 0.00 | 0.00 | 0.00 | 84 | 1014.6 |
| 20260906081011 | 74 | 77 | 1.0 | 4.0 | 0.00 | 0.00 | 0.00 | 84 | 1014.6 |
| 20260906080512 | 74 | 116 | 1.0 | 4.0 | 0.00 | 0.00 | 0.00 | 83 | 1014.4 |
| 20260906080030 | 74 | 122 | 0.0 | 7.0 | 0.00 | 0.00 | 0.00 | 83 | 1014.6 |
| 20260906080027 | 74 | 122 | 0.0 | 7.0 | 0.00 | 0.00 | 0.00 | 84 | 1010.1 |
| 20260906075511 | 74 | 115 | 2.0 | 7.0 | 0.00 | 0.00 | 0.00 | 83 | 1014.5 |
| 20260906075016 | 74 | 110 | 3.0 | 7.0 | 0.00 | 0.00 | 0.00 | 83 | 1014.5 |
| 20260906074530 | 74 | 86 | 2.0 | 7.0 | 0.00 | 0.00 | 0.00 | 83 | 1014.5 |
| 20260906074519 | 74 | 110 | 1.0 | 7.0 | 0.00 | 0.00 | 0.00 | 83 | 1010.1 |
| 20260906074003 | 74 | 75 | 3.0 | 5.0 | 0.00 | 0.00 | 0.00 | 82 | 1014.4 |
| 20260906073503 | 74 | 103 | 2.0 | 4.0 | 0.00 | 0.00 | 0.00 | 82 | 1014.5 |
| 20260906073018 | 74 | 77 | 2.0 | 5.0 | 0.00 | 0.00 | 0.00 | 82 | 1010.0 |
| 20260906073010 | 74 | 110 | 2.0 | 5.0 | 0.00 | 0.00 | 0.00 | 82 | 1014.4 |
| 20260906072504 | 75 | 117 | 2.0 | 5.0 | 0.00 | 0.00 | 0.00 | 82 | 1014.4 |
| 20260906072008 | 75 | 103 | 2.0 | 5.0 | 0.00 | 0.00 | 0.00 | 81 | 1014.5 |
| 20260906071517 | 75 | 124 | 2.0 | 5.0 | 0.00 | 0.00 | 0.00 | 81 | 1014.4 |
| 20260906071515 | 75 | 103 | 2.0 | 5.0 | 0.00 | 0.00 | 0.00 | 82 | 1010.1 |
| 20260906071010 | 75 | 96 | 3.0 | 5.0 | 0.00 | 0.00 | 0.00 | 81 | 1014.4 |
| 20260906070510 | 75 | 98 | 2.0 | 3.0 | 0.00 | 0.00 | 0.00 | 81 | 1014.4 |
| 20260906070026 | 75 | 125 | 0.0 | 3.0 | 0.00 | 0.00 | 0.00 | 81 | 1014.4 |
| 20260906070014 | 75 | 143 | 0.0 | 2.0 | 0.00 | 0.00 | 0.00 | 81 | 1010.1 |
| 20260906065511 | 75 | 138 | 1.0 | 5.0 | 0.00 | 0.00 | 0.00 | 80 | 1014.4 |
| 20260906065014 | 75 | 140 | 2.0 | 5.0 | 0.00 | 0.00 | 0.00 | 80 | 1014.3 |
| 20260906064527 | 75 | 122 | 2.0 | 5.0 | 0.00 | 0.00 | 0.00 | 80 | 1014.3 |
| 20260906064513 | 75 | 124 | 2.0 | 5.0 | 0.00 | 0.00 | 0.00 | 81 | 1010.0 |
| 20260906064019 | 75 | 127 | 1.0 | 4.0 | 0.00 | 0.00 | 0.00 | 80 | 1014.4 |
| 20260906063516 | 75 | 136 | 2.0 | 4.0 | 0.00 | 0.00 | 0.00 | 80 | 1014.4 |
| 20260906063030 | 75 | 178 | 3.0 | 4.0 | 0.00 | 0.00 | 0.00 | 80 | 1014.5 |
| 20260906063011 | 75 | 172 | 2.0 | 4.0 | 0.00 | 0.00 | 0.00 | 80 | 1010.0 |
| 20260906062504 | 75 | 148 | 2.0 | 4.0 | 0.00 | 0.00 | 0.00 | 80 | 1014.5 |
| 20260906062008 | 76 | 175 | 2.0 | 4.0 | 0.00 | 0.00 | 0.00 | 79 | 1014.6 |
| 20260906061513 | 76 | 116 | 1.0 | 4.0 | 0.00 | 0.00 | 0.00 | 79 | 1014.5 |
| 20260906061509 | 76 | 108 | 1.0 | 4.0 | 0.00 | 0.00 | 0.00 | 80 | 1010.1 |
| 20260906061007 | 76 | 131 | 2.0 | 4.0 | 0.00 | 0.00 | 0.00 | 79 | 1014.5 |
| 20260906060510 | 76 | 135 | 2.0 | 7.0 | 0.00 | 0.00 | 0.00 | 79 | 1014.5 |
| 20260906060027 | 76 | 126 | 2.0 | 7.0 | 0.00 | 0.00 | 0.00 | 78 | 1014.4 |
| 20260906060006 | 76 | 126 | 2.0 | 7.0 | 0.00 | 0.00 | 0.00 | 79 | 1009.9 |
| 20260906055509 | 76 | 158 | 3.0 | 7.0 | 0.00 | 0.00 | 0.00 | 78 | 1014.4 |
| 20260906055011 | 77 | 151 | 3.0 | 7.0 | 0.00 | 0.00 | 0.00 | 77 | 1014.5 |
| 20260906054541 | 77 | 176 | 4.0 | 7.0 | 0.00 | 0.00 | 0.00 | 77 | 1014.5 |
| 20260906054504 | 77 | 154 | 3.0 | 7.0 | 0.00 | 0.00 | 0.00 | 78 | 1010.1 |
| 20260906054015 | 77 | 160 | 3.0 | 8.0 | 0.00 | 0.00 | 0.00 | 77 | 1014.5 |
| 20260906053513 | 77 | 155 | 4.0 | 8.0 | 0.00 | 0.00 | 0.00 | 77 | 1014.4 |
| 20260906053027 | 77 | 170 | 5.0 | 9.0 | 0.00 | 0.00 | 0.00 | 77 | 1014.3 |
| 20260906053001 | 77 | 143 | 4.0 | 9.0 | 0.00 | 0.00 | 0.00 | 77 | 1009.9 |
| 20260906052514 | 77 | 130 | 5.0 | 9.0 | 0.00 | 0.00 | 0.00 | 77 | 1014.4 |
| 20260906052016 | 77 | 149 | 3.0 | 6.0 | 0.00 | 0.00 | 0.00 | 77 | 1014.4 |
| 20260906051601 | 77 | 150 | 2.0 | 6.0 | 0.00 | 0.00 | 0.00 | 78 | 1009.9 |
| 20260906051529 | 77 | 157 | 2.0 | 7.0 | 0.00 | 0.00 | 0.00 | 77 | 1014.4 |
| 20260906051007 | 77 | 164 | 3.0 | 7.0 | 0.00 | 0.00 | 0.00 | 77 | 1014.4 |
| 20260906050506 | 77 | 147 | 3.0 | 9.0 | 0.00 | 0.00 | 0.00 | 78 | 1014.6 |
| 20260906050056 | 77 | 197 | 4.0 | 9.0 | 0.00 | 0.00 | 0.00 | 78 | 1010.0 |
| 20260906050014 | 77 | 148 | 4.0 | 9.0 | 0.00 | 0.00 | 0.00 | 78 | 1014.5 |
| 20260906045509 | 77 | 88 | 4.0 | 8.0 | 0.00 | 0.00 | 0.00 | 79 | 1014.3 |
| 20260906045009 | 77 | 141 | 4.0 | 8.0 | 0.00 | 0.00 | 0.00 | 79 | 1014.4 |
| 20260906044554 | 77 | 139 | 2.0 | 8.0 | 0.00 | 0.00 | 0.00 | 79 | 1010.0 |
| 20260906044523 | 77 | 113 | 4.0 | 8.0 | 0.00 | 0.00 | 0.00 | 79 | 1014.6 |
| 20260906044016 | 77 | 159 | 3.0 | 9.0 | 0.00 | 0.00 | 0.00 | 79 | 1014.6 |
| 20260906043510 | 77 | 137 | 4.0 | 9.0 | 0.00 | 0.00 | 0.00 | 79 | 1014.7 |
| 20260906043100 | 77 | 104 | 3.0 | 8.0 | 0.00 | 0.00 | 0.00 | 80 | 1010.3 |
| 20260906043030 | 77 | 110 | 3.0 | 7.0 | 0.00 | 0.00 | 0.00 | 79 | 1014.9 |
| 20260906042511 | 77 | 72 | 4.0 | 7.0 | 0.00 | 0.00 | 0.00 | 80 | 1014.9 |
| 20260906042014 | 76 | 101 | 3.0 | 7.0 | 0.00 | 0.00 | 0.00 | 80 | 1015.0 |
| 20260906041558 | 76 | 94 | 3.0 | 7.0 | 0.00 | 0.00 | 0.00 | 81 | 1010.4 |
| 20260906041531 | 76 | 76 | 2.0 | 7.0 | 0.00 | 0.00 | 0.00 | 80 | 1014.9 |
| 20260906041014 | 76 | 60 | 3.0 | 5.0 | 0.00 | 0.00 | 0.00 | 80 | 1014.9 |
| 20260906040515 | 76 | 63 | 3.0 | 6.0 | 0.00 | 0.00 | 0.00 | 80 | 1014.8 |
| 20260906040058 | 76 | 39 | 4.0 | 8.0 | 0.00 | 0.00 | 0.00 | 79 | 1014.5 |
| 20260906040052 | 76 | 53 | 3.0 | 6.0 | 0.00 | 0.00 | 0.00 | 80 | 1010.0 |
| 20260906035507 | 76 | 68 | 4.0 | 8.0 | 0.00 | 0.00 | 0.00 | 79 | 1014.2 |
| 20260906035008 | 76 | 55 | 5.0 | 8.0 | 0.00 | 0.00 | 0.00 | 78 | 1014.1 |
| 20260906034552 | 77 | 67 | 3.0 | 7.0 | 0.00 | 0.00 | 0.00 | 78 | 1009.7 |
| 20260906034516 | 77 | 63 | 4.0 | 7.0 | 0.00 | 0.00 | 0.00 | 77 | 1014.3 |
| 20260906034009 | 77 | 38 | 3.0 | 7.0 | 0.00 | 0.00 | 0.00 | 76 | 1014.1 |
| 20260906033510 | 77 | 75 | 3.0 | 7.0 | 0.00 | 0.00 | 0.00 | 75 | 1014.2 |
| 20260906033104 | 77 | 96 | 3.0 | 8.0 | 0.00 | 0.00 | 0.00 | 75 | 1009.7 |
| 20260906033038 | 77 | 125 | 3.0 | 8.0 | 0.00 | 0.00 | 0.00 | 75 | 1014.4 |
| 20260906032514 | 77 | 80 | 3.0 | 8.0 | 0.00 | 0.00 | 0.00 | 74 | 1014.2 |
| 20260906032014 | 77 | 104 | 2.0 | 5.0 | 0.00 | 0.00 | 0.00 | 74 | 1014.2 |
| 20260906031550 | 77 | 78 | 1.0 | 5.0 | 0.00 | 0.00 | 0.00 | 75 | 1009.7 |
| 20260906031527 | 77 | 58 | 2.0 | 5.0 | 0.00 | 0.00 | 0.00 | 75 | 1014.3 |
| 20260906031014 | 77 | 75 | 2.0 | 5.0 | 0.00 | 0.00 | 0.00 | 75 | 1014.4 |
| 20260906030516 | 78 | 86 | 3.0 | 4.0 | 0.00 | 0.00 | 0.00 | 74 | 1014.5 |
| 20260906030052 | 78 | 84 | 1.0 | 4.0 | 0.00 | 0.00 | 0.00 | 74 | 1010.0 |
| 20260906030030 | 78 | 73 | 2.0 | 5.0 | 0.00 | 0.00 | 0.00 | 73 | 1014.6 |
| 20260906025518 | 78 | 97 | 2.0 | 5.0 | 0.00 | 0.00 | 0.00 | 72 | 1014.6 |
| 20260906025018 | 78 | 94 | 1.0 | 3.0 | 0.00 | 0.00 | 0.00 | 72 | 1014.7 |
| 20260906024551 | 78 | 101 | 1.0 | 3.0 | 0.00 | 0.00 | 0.00 | 73 | 1010.1 |
| 20260906024513 | 78 | 77 | 1.0 | 3.0 | 0.00 | 0.00 | 0.00 | 72 | 1014.6 |
| 20260906024006 | 78 | 118 | 1.0 | 4.0 | 0.00 | 0.00 | 0.00 | 72 | 1014.6 |
| 20260906023508 | 79 | 143 | 1.0 | 4.0 | 0.00 | 0.00 | 0.00 | 71 | 1014.7 |
| 20260906023054 | 79 | 94 | 0.0 | 3.0 | 0.00 | 0.00 | 0.00 | 71 | 1010.0 |
| 20260906023024 | 79 | 117 | 0.0 | 3.0 | 0.00 | 0.00 | 0.00 | 71 | 1014.6 |
| 20260906022510 | 79 | 110 | 2.0 | 3.0 | 0.00 | 0.00 | 0.00 | 70 | 1014.5 |
| 20260906022010 | 79 | 143 | 0.0 | 2.0 | 0.00 | 0.00 | 0.00 | 70 | 1014.4 |
| 20260906021548 | 79 | 86 | 0.0 | 4.0 | 0.00 | 0.00 | 0.00 | 71 | 1009.7 |
| 20260906021526 | 79 | 83 | 0.0 | 4.0 | 0.00 | 0.00 | 0.00 | 71 | 1014.3 |
| 20260906021014 | 79 | 106 | 1.0 | 4.0 | 0.00 | 0.00 | 0.00 | 71 | 1014.1 |
| 20260906020516 | 80 | 103 | 2.0 | 4.0 | 0.00 | 0.00 | 0.00 | 71 | 1014.1 |
| 20260906020100 | 80 | 94 | 1.0 | 4.0 | 0.00 | 0.00 | 0.00 | 71 | 1009.3 |
| 20260906020033 | 80 | 84 | 1.0 | 4.0 | 0.00 | 0.00 | 0.00 | 70 | 1014.0 |
| 20260906015503 | 80 | 79 | 2.0 | 4.0 | 0.00 | 0.00 | 0.00 | 70 | 1014.0 |
| 20260906015004 | 80 | 122 | 2.0 | 3.0 | 0.00 | 0.00 | 0.00 | 69 | 1014.1 |
| 20260906014547 | 80 | 114 | 0.0 | 2.0 | 0.00 | 0.00 | 0.00 | 69 | 1009.4 |
| 20260906014509 | 81 | 124 | 0.0 | 2.0 | 0.00 | 0.00 | 0.00 | 69 | 1014.1 |
| 20260906014002 | 80 | 129 | 0.0 | 0.0 | 0.00 | 0.00 | 0.00 | 69 | 1014.2 |
| 20260906013506 | 80 | 153 | 0.0 | 0.0 | 0.00 | 0.00 | 0.00 | 69 | 1014.2 |
| 20260906013057 | 80 | 153 | 0.0 | 0.0 | 0.00 | 0.00 | 0.00 | 70 | 1009.6 |
| 20260906013006 | 80 | 153 | 0.0 | 0.0 | 0.00 | 0.00 | 0.00 | 69 | 1014.2 |
| 20260906012502 | 81 | 153 | 0.0 | 0.0 | 0.00 | 0.00 | 0.00 | 68 | 1014.2 |
| 20260906012005 | 81 | 153 | 0.0 | 0.0 | 0.00 | 0.00 | 0.00 | 68 | 1014.2 |
| 20260906011559 | 81 | 153 | 0.0 | 0.0 | 0.00 | 0.00 | 0.00 | 68 | 1009.7 |
| 20260906011514 | 81 | 153 | 0.0 | 0.0 | 0.00 | 0.00 | 0.00 | 67 | 1014.3 |
| 20260906011003 | 81 | 153 | 0.0 | 0.0 | 0.00 | 0.00 | 0.00 | 68 | 1014.4 |
| 20260906010502 | 81 | 153 | 0.0 | 0.0 | 0.00 | 0.00 | 0.00 | 66 | 1014.6 |
| 20260906010046 | 82 | 153 | 0.0 | 0.0 | 0.00 | 0.00 | 0.00 | 66 | 1009.9 |
| 20260906010014 | 82 | 153 | 0.0 | 0.0 | 0.00 | 0.00 | 0.00 | 66 | 1014.5 |
| 20260906005502 | 82 | 153 | 0.0 | 1.0 | 0.00 | 0.00 | 0.00 | 64 | 1014.6 |
| 20260906005003 | 83 | 153 | 0.0 | 2.0 | 0.00 | 0.00 | 0.00 | 64 | 1014.7 |
| 20260906004548 | 83 | 153 | 0.0 | 2.0 | 0.00 | 0.00 | 0.00 | 64 | 1010.0 |
| 20260906004509 | 83 | 153 | 0.0 | 3.0 | 0.00 | 0.00 | 0.00 | 63 | 1014.8 |
| 20260906004002 | 83 | 197 | 0.0 | 3.0 | 0.00 | 0.00 | 0.00 | 63 | 1014.6 |
| 20260906003501 | 83 | 108 | 0.0 | 3.0 | 0.00 | 0.00 | 0.00 | 64 | 1014.3 |
| 20260906003045 | 83 | 141 | 0.0 | 1.0 | 0.00 | 0.00 | 0.00 | 65 | 1009.4 |
| 20260906003010 | 83 | 141 | 0.0 | 2.0 | 0.00 | 0.00 | 0.00 | 64 | 1014.3 |
| 20260906002504 | 83 | 115 | 0.0 | 4.0 | 0.00 | 0.00 | 0.00 | 64 | 1014.2 |
| 20260906002003 | 84 | 167 | 1.0 | 4.0 | 0.00 | 0.00 | 0.00 | 63 | 1014.3 |
| 20260906001546 | 84 | 170 | 1.0 | 4.0 | 0.00 | 0.00 | 0.00 | 63 | 1009.6 |
| 20260906001510 | 84 | 173 | 2.0 | 4.0 | 0.00 | 0.00 | 0.00 | 62 | 1014.3 |
| 20260906001003 | 84 | 183 | 1.0 | 4.0 | 0.00 | 0.00 | 0.00 | 62 | 1014.2 |
| 20260906000502 | 85 | 162 | 1.0 | 5.0 | 0.00 | 0.00 | 0.00 | 61 | 1014.1 |
| 20260906000053 | 85 | 131 | 1.0 | 5.0 | 0.00 | 0.00 | 0.00 | 61 | 1009.3 |
| 20260906000010 | 85 | 131 | 2.0 | 7.0 | 0.00 | 0.00 | 0.00 | 60 | 1014.0 |
| 20260905235503 | 85 | 127 | 2.0 | 7.0 | 0.00 | 0.00 | 0.00 | 59 | 1013.9 |
| 20260905235006 | 86 | 134 | 2.0 | 5.0 | 0.00 | 0.00 | 0.00 | 59 | 1013.9 |
| 20260905234545 | 86 | 149 | 2.0 | 5.0 | 0.00 | 0.00 | 0.00 | 58 | 1009.1 |
| 20260905234510 | 86 | 126 | 3.0 | 8.0 | 0.00 | 0.00 | 0.00 | 58 | 1013.9 |
| 20260905234003 | 86 | 86 | 2.0 | 8.0 | 0.00 | 0.00 | 0.00 | 57 | 1014.0 |
| 20260905233504 | 87 | 113 | 3.0 | 7.0 | 0.00 | 0.00 | 0.00 | 56 | 1013.9 |
| 20260905233043 | 87 | 121 | 2.0 | 6.0 | 0.00 | 0.00 | 0.00 | 57 | 1009.1 |
| 20260905233009 | 87 | 124 | 3.0 | 7.0 | 0.00 | 0.00 | 0.00 | 56 | 1013.9 |
| 20260905232506 | 88 | 139 | 2.0 | 10.0 | 0.00 | 0.00 | 0.00 | 55 | 1013.9 |
| 20260905232003 | 89 | 127 | 3.0 | 10.0 | 0.00 | 0.00 | 0.00 | 53 | 1013.8 |
| 20260905231542 | 89 | 150 | 5.0 | 10.0 | 0.00 | 0.00 | 0.00 | 52 | 1008.6 |
| 20260905231517 | 89 | 110 | 5.0 | 9.0 | 0.00 | 0.00 | 0.00 | 51 | 1013.5 |
| 20260905231005 | 90 | 141 | 4.0 | 11.0 | 0.00 | 0.00 | 0.00 | 50 | 1013.3 |